This demonstration page uses our WeatherBlox Daily Observations layout. Learn more.

Left ArrowRight Arrow

39.08367, -84.50855

Hourly Observations for August 16, 2017

Temp ( °F °C ) Dew Point ( °F °C ) Humidity (%) Winds ( mph kmh ) Pressure ( in mb ) Visibility ( mi km ) Precip ( " mm )
12:53 am 00:53 Clear 69 20.6 69 20.6 100 100 N N/A 29.97 1015 7 11.26538 N/A
1:53 am 01:53 Clear with Mist and Fog 68 20 68 20 100 100 N N/A 29.98 1015 4 6.43736 N/A
2:53 am 02:53 Clear with Mist and Fog 68 20 68 20 100 100 N N/A 29.98 1015 5 8.0467 N/A
3:08 am 03:08 Clear with Mist and Fog 68 20 68 20 100 100 N N/A 29.97 1015 2 3.21868 N/A
3:27 am 03:27 Mostly Cloudy with Mist and Fog 67 19.4 67 19.4 100 100 N N/A 29.97 1015 4 6.43736 N/A
3:53 am 03:53 Mostly Clear with Mist and Fog 67 19.4 67 19.4 100 100 N N/A 29.97 1015 4 6.43736 N/A
4:46 am 04:46 Clear with Mist and Fog 67 19.4 67 19.4 100 100 N N/A 29.97 1015 1.75 2.816345 N/A
4:53 am 04:53 Clear with Mist and Fog 67 19.4 67 19.4 100 100 N N/A 29.98 1015 1 1.60934 N/A
5:00 am 05:00 Clear with Mist and Fog 67 19.4 67 19.4 100 100 N N/A 29.97 1015 3 4.82802 N/A
5:02 am 05:02 Clear with Mist and Fog 67 19.4 67 19.4 100 100 N N/A 29.97 1015 1.5 2.41401 N/A
5:10 am 05:10 Clear with Mist and Fog 66 18.9 66 18.9 100 100 N N/A 29.97 1015 0.75 1.207005 N/A
5:27 am 05:27 Clear with Fog 66 18.9 66 18.9 100 100 N N/A 29.97 1015 0.25 0.402335 N/A
5:30 am 05:30 Mostly Cloudy with Fog 66 18.9 66 18.9 100 100 N N/A 29.97 1015 0.5 0.80467 N/A
5:35 am 05:35 Partly Cloudy with Mist and Fog 66 18.9 66 18.9 100 100 N N/A 29.97 1015 2 3.21868 N/A
5:42 am 05:42 Mostly Cloudy with Mist and Fog 66 18.9 66 18.9 100 100 N N/A 29.97 1015 1 1.60934 N/A
5:51 am 05:51 Mostly Clear with Mist and Fog 66 19 66 19 100 100 N N/A 29.97 1015 2 3.21868 N/A
5:53 am 05:53 Mostly Clear with Mist and Fog 66 18.9 66 18.9 100 100 N N/A 30 1016 4 6.43736 N/A
6:21 am 06:21 Clear with Mist and Fog 65 18.3 65 18.3 100 100 ENE 3 6 30 1016 1.75 2.816345 N/A
6:35 am 06:35 Clear with Mist and Fog 66 18.9 66 18.9 100 100 N N/A 30 1016 3 4.82802 N/A
6:53 am 06:53 Partly Cloudy with Patchy Fog 66 18.9 66 18.9 100 100 N N/A 30.01 1016 6 9.65604 N/A
7:04 am 07:04 Sunny with Patchy Fog 65 18.3 65 18.3 100 100 N N/A 30 1016 1.5 2.41401 N/A
7:14 am 07:14 Partly Cloudy with Patchy Fog 66 18.9 66 18.9 100 100 N N/A 30 1016 6 9.65604 N/A
7:45 am 07:45 Mostly Cloudy with Patchy Fog 67 19.4 67 19.4 100 100 N N/A 30 1016 4 6.43736 N/A
7:53 am 07:53 Mostly Cloudy with Patchy Fog 68 20 68 20 100 100 N N/A 30.03 1017 4 6.43736 N/A
8:12 am 08:12 Partly Cloudy with Patchy Fog 70 21.1 70 21.1 100 100 N N/A 30 1016 4 6.43736 N/A
8:53 am 08:53 Partly Cloudy with Mist and Fog 72 22.2 71 21.7 97 97 N N/A 30.03 1017 6 9.65604 N/A
9:53 am 09:53 Sunny 77 25 73 22.8 88 88 SW 3 6 30.03 1017 10 16.0934 N/A
10:53 am 10:53 Sunny 82 27.8 72 22.2 72 72 SSW 3 6 30.03 1017 10 16.0934 N/A
11:53 am 11:53 Sunny 85 29.4 73 22.8 68 68 S 7 11 30.04 1017 10 16.0934 N/A
12:53 pm 12:53 Partly Cloudy 87 30.6 71 21.7 59 59 SSE 5 7 30.02 1017 10 16.0934 N/A
1:53 pm 13:53 Mostly Cloudy 88 31.1 71 21.7 57 57 VRB 6 9 30 1016 10 16.0934 N/A
2:53 pm 14:53 Partly Cloudy 89 31.7 73 22.8 59 59 SSE 9 15 29.98 1015 10 16.0934 N/A
3:53 pm 15:53 Mostly Cloudy 88 31.1 72 22.2 59 59 SSE 6 9 29.97 1015 10 16.0934 N/A
4:53 pm 16:53 Partly Cloudy 87 30.6 72 22.2 61 61 S 7 11 29.94 1014 10 16.0934 N/A
5:53 pm 17:53 Sunny 89 31.7 72 22.2 57 57 SSE 8 13 29.93 1014 10 16.0934 N/A
6:53 pm 18:53 Sunny 87 30.6 74 23.3 65 65 S 9 15 29.93 1014 10 16.0934 N/A
7:53 pm 19:53 Mostly Sunny 83 28.3 74 23.3 74 74 S 5 7 29.95 1014 10 16.0934 N/A
8:53 pm 20:53 Mostly Clear 78 25.6 75 23.9 90 90 SSW 3 6 29.95 1014 10 16.0934 N/A
9:53 pm 21:53 Mostly Clear 79 26.1 74 23.3 85 85 N N/A 29.97 1015 10 16.0934 N/A
10:53 pm 22:53 Clear 77 25 74 23.3 90 90 N N/A 29.97 1015 10 16.0934 N/A
11:53 pm 23:53 Clear 77 25 73 22.8 88 88 S 7 11 29.96 1015 10 16.0934 N/A

Powered by AerisWeather